This is the latest recevied weather packets stored in our database for station/object KB4MOX. If no packets are shown the sender has not sent any weather packets the latest 10 day(s).
| Time | Temp. | Humidity | Pressure | Rain* | Wind** | Luminosity | Snow |
|---|---|---|---|---|---|---|---|
| 1788005240 | 21.11° C | 97% | 1020.9 hPa | 0 mm | - | 71 W/m² | - |
| 1788004939 | 21.11° C | 97% | 1021.1 hPa | 0 mm | - | 54 W/m² | - |
| 1788004638 | 21.11° C | 97% | 1021 hPa | 0 mm | - | 45 W/m² | - |
| 1788004333 | 21.11° C | 97% | 1021.1 hPa | 0 mm | - | 40 W/m² | - |
| 1788004032 | 21.11° C | 97% | 1020.9 hPa | 0 mm | - | 38 W/m² | - |
| 1788003731 | 21.11° C | 97% | 1020.9 hPa | 0 mm | - | 30 W/m² | - |
| 1788003427 | 21.11° C | 97% | 1020.9 hPa | 0 mm | - | 23 W/m² | - |
| 1788003127 | 21.11° C | 97% | 1020.8 hPa | 0 mm | - | 15 W/m² | - |
| 1788002826 | 21.11° C | 97% | 1020.8 hPa | 0 mm | - | 11 W/m² | - |
| 1788002522 | 21.11° C | 97% | 1020.6 hPa | 0 mm | - | 8 W/m² | - |
| 1788002217 | 21.11° C | 97% | 1020.5 hPa | 0 mm | - | 5 W/m² | - |
| 1788001917 | 21.11° C | 97% | 1020.4 hPa | 0 mm | - | 3 W/m² | - |
| 1788001612 | 21.11° C | 97% | 1020.2 hPa | 0 mm | - | 1 W/m² | - |
| 1788001307 | 21.11° C | 97% | 1020.2 hPa | 0 mm | - | 1 W/m² | - |
| 1788001007 | 21.11° C | 97% | 1020.1 hPa | 0 mm | - | 0 W/m² | - |
| 1788000702 | 21.11° C | 97% | 1020.1 hPa | 0 mm | - | 0 W/m² | - |
| 1788000398 | 21.11° C | 97% | 1019.9 hPa | 0 mm | - | 0 W/m² | - |
| 1788000097 | 21.11° C | 97% | 1019.9 hPa | 0 mm | - | 0 W/m² | - |
| 1787999794 | 20.56° C | 97% | 1019.8 hPa | 0 mm | - | 0 W/m² | - |
| 1787999491 | 20.56° C | 97% | 1019.9 hPa | 0 mm | - | 0 W/m² | - |
| 1787999186 | 20.56° C | 97% | 1019.6 hPa | 0 mm | - | 0 W/m² | - |
| 1787998880 | 20.56° C | 97% | 1019.8 hPa | 0 mm | - | 0 W/m² | - |
| 1787998579 | 20.56° C | 97% | 1019.4 hPa | 0 mm | - | 0 W/m² | - |
| 1787998279 | 20.56° C | 97% | 1019.5 hPa | 0 mm | - | 0 W/m² | - |
| 1787997974 | 21.11° C | 97% | 1019.4 hPa | 0 mm | - | 0 W/m² | - |
* Rain latest hour (hover to see other rain measurements)
** Current wind speed in m/s (hover to see current wind gust speed)